星链-4674 (STARLINK-4674 )

导读 | 星芒AI

STARLINK-4674 是 SpaceX Starlink 卫星互联网项目中的一个低轨卫星,属于第 20 批部署的 Starlink 卫星之一。该卫星于 2023 年发射,运行在约 550 公里的轨道高度,旨在为全球用户提供高速互联网服务。它采用先进的推进系统和激光通信技术,支持与其他 Starlink 卫星的高速数据传输,提升网络稳定性和覆盖范围。作为 Starlink 网络的重要组成部分,STARLINK-4674 有助于改善偏远地区的网络接入,推动全球互联网普及。

基本信息
目录编号:
53591
目录名称:
STARLINK-4674
国际标识:
2022-104D
轨道中心:
EARTH
卫星名称:
星链-4674
卫星全名:
星链-4674 (STARLINK-4674 )
卫星状态:
在轨 (已飞行1165 天)
发射日期:
2022-08-28 UTC
国别 :
美国 (US)
星等 :
--
轨道信息
数据来源 国际轨道数据 AOE轨道数据
星历时间 2025-11-05T02:27:14+0800
7小时前
查看轨道信息
2025-11-02T08:00:00+0800
3天前
查看轨道信息
半长轴 6917.878km 6917.9km
偏心率 0.0001276 0.0001042
轨道倾角 53.216° 53.215°
近地点辐角 78.273° 63.361°
升交点赤经 85.079° 97.509°
平近点角 281.841° 8.350°
近地点 538.86km 539.044km
远地点 540.626km 540.486km
周期 95.437分钟 95.438分钟
每日圈数 15.088409 15.088338
详细信息
固有亮度:
5
最大亮度:
2.5
卫星平台:
Starlink v1.5
覆盖范围:
全球
运营商:
太空探索技术公司
运营商所在国:
美国
制造商(研发单位):
太空探索技术公司
制造商所在国:
美国
使用方式:
暂无
卫星简介
星链(Starlink)计划是由太空探索技术公司(SpaceX)提出的一个巨型低轨卫星互联网星座项目,计划在2019年至2024年间在太空搭建由约1.2万颗卫星组成的“星链”网络,其中1584颗将部署在地球上空550千米处的近地轨道,并从2020年开始工作。该卫星仍在工作。
2D轨道图
3D轨道图
轨道高度分析图
轨道倾角分析图
轨道综合分析图
查看轨道综合分析图